Wetterdaten: Sonntag, 16.06.2013
Datum Zeit Temperatur Luftfeuchte Luftdruck Regen Wind Richtung Richtung Taupunkt Windchill Windben
16.06.2013 00:00 14,5 C 94 % 1020,9 hPa 0,0 l/m 2,6 km/h (1 Bft) N-NO 22 13,5 C 14,7 C 0,0 km/h (0 Bft)
16.06.2013 00:05 14,5 C 94 % 1020,9 hPa 0,0 l/m 3,4 km/h (1 Bft) S-SO 157 13,5 C 14,6 C 6,9 km/h (2 Bft)
16.06.2013 00:10 14,5 C 94 % 1020,9 hPa 0,0 l/m 2,6 km/h (1 Bft) S-SO 157 13,5 C 14,7 C 2,6 km/h (1 Bft)
16.06.2013 00:15 14,5 C 94 % 1020,9 hPa 0,0 l/m 2,4 km/h (1 Bft) NO 45 13,5 C 14,6 C 2,3 km/h (1 Bft)
16.06.2013 00:20 14,4 C 94 % 1020,9 hPa 0,0 l/m 1,0 km/h (0 Bft) NO 45 13,4 C 14,6 C 0,0 km/h (0 Bft)
16.06.2013 00:25 14,4 C 94 % 1021,0 hPa 0,0 l/m 0,5 km/h (0 Bft) W-NW 292 13,4 C 14,5 C 1,8 km/h (1 Bft)
16.06.2013 00:30 14,2 C 94 % 1021,0 hPa 0,0 l/m 0,2 km/h (0 Bft) N-NO 22 13,2 C 14,4 C 0,0 km/h (0 Bft)
16.06.2013 00:35 14,2 C 94 % 1021,0 hPa 0,0 l/m 0,3 km/h (0 Bft) W 270 13,2 C 14,3 C 0,0 km/h (0 Bft)
16.06.2013 00:40 14,1 C 94 % 1021,0 hPa 0,0 l/m 0,5 km/h (0 Bft) W-SW 247 13,1 C 14,2 C 3,7 km/h (1 Bft)
16.06.2013 00:45 14,0 C 94 % 1020,9 hPa 0,0 l/m 0,3 km/h (0 Bft) N-NO 22 13,0 C 14,1 C 0,0 km/h (0 Bft)
16.06.2013 00:50 14,0 C 94 % 1020,9 hPa 0,0 l/m 0,2 km/h (0 Bft) N-NW 337 13,0 C 14,1 C 0,0 km/h (0 Bft)
16.06.2013 00:55 13,9 C 94 % 1020,9 hPa 0,0 l/m 0,2 km/h (0 Bft) NO 45 12,9 C 14,0 C 0,0 km/h (0 Bft)
16.06.2013 01:00 13,7 C 94 % 1020,9 hPa 0,0 l/m 0,0 km/h (0 Bft) SO 135 12,8 C 13,9 C 0,0 km/h (0 Bft)
16.06.2013 01:05 13,7 C 94 % 1021,0 hPa 0,0 l/m 0,0 km/h (0 Bft) NO 45 12,8 C 13,8 C 0,0 km/h (0 Bft)
16.06.2013 01:10 13,8 C 94 % 1021,0 hPa 0,0 l/m 0,0 km/h (0 Bft) NO 45 12,9 C 13,7 C 1,6 km/h (1 Bft)
16.06.2013 01:15 13,5 C 94 % 1021,0 hPa 0,0 l/m 0,2 km/h (0 Bft) W-NW 292 12,6 C 13,6 C 2,7 km/h (1 Bft)
16.06.2013 01:20 13,5 C 94 % 1021,0 hPa 0,0 l/m 0,3 km/h (0 Bft) W-SW 247 12,6 C 13,6 C 0,0 km/h (0 Bft)
16.06.2013 01:25 13,4 C 94 % 1020,9 hPa 0,0 l/m 0,3 km/h (0 Bft) S 180 12,5 C 13,6 C 0,0 km/h (0 Bft)
16.06.2013 01:30 13,4 C 94 % 1020,9 hPa 0,0 l/m 0,0 km/h (0 Bft) O-SO 112 12,5 C 13,4 C 0,0 km/h (0 Bft)
16.06.2013 01:35 13,3 C 94 % 1020,9 hPa 0,0 l/m 0,2 km/h (0 Bft) O-SO 112 12,4 C 13,4 C 0,0 km/h (0 Bft)
16.06.2013 01:40 13,3 C 94 % 1020,9 hPa 0,0 l/m 0,2 km/h (0 Bft) O-SO 112 12,4 C 13,3 C 0,0 km/h (0 Bft)
16.06.2013 01:45 13,2 C 94 % 1021,1 hPa 0,0 l/m 0,0 km/h (0 Bft) O 90 12,3 C 13,3 C 0,0 km/h (0 Bft)
16.06.2013 01:50 13,1 C 94 % 1021,1 hPa 0,0 l/m 0,0 km/h (0 Bft) SO 135 12,2 C 13,3 C 0,0 km/h (0 Bft)
16.06.2013 01:55 13,3 C 94 % 1021,1 hPa 0,0 l/m 0,0 km/h (0 Bft) S-SO 157 12,4 C 13,4 C 1,8 km/h (1 Bft)
16.06.2013 02:00 13,4 C 94 % 1021,1 hPa 0,0 l/m 0,2 km/h (0 Bft) O 90 12,5 C 13,4 C 0,0 km/h (0 Bft)
16.06.2013 02:05 13,3 C 94 % 1020,8 hPa 0,0 l/m 0,2 km/h (0 Bft) O-SO 112 12,4 C 13,4 C 1,6 km/h (1 Bft)
16.06.2013 02:10 13,4 C 94 % 1020,8 hPa 0,0 l/m 0,2 km/h (0 Bft) W-NW 292 12,5 C 13,5 C 0,0 km/h (0 Bft)
16.06.2013 02:15 13,4 C 94 % 1020,8 hPa 0,0 l/m 0,3 km/h (0 Bft) W-NW 292 12,5 C 13,5 C 0,0 km/h (0 Bft)
16.06.2013 02:20 13,6 C 95 % 1020,8 hPa 0,0 l/m 0,3 km/h (0 Bft) N 360 12,8 C 13,7 C 0,0 km/h (0 Bft)
16.06.2013 02:25 13,7 C 95 % 1020,8 hPa 0,0 l/m 0,2 km/h (0 Bft) W-SW 247 12,9 C 13,8 C 0,0 km/h (0 Bft)
16.06.2013 02:30 13,8 C 95 % 1020,8 hPa 0,0 l/m 0,0 km/h (0 Bft) S-SO 157 13,0 C 14,0 C 0,0 km/h (0 Bft)
16.06.2013 02:35 13,9 C 95 % 1020,8 hPa 0,0 l/m 0,0 km/h (0 Bft) W 270 13,1 C 14,0 C 0,0 km/h (0 Bft)
16.06.2013 02:40 13,9 C 95 % 1020,8 hPa 0,0 l/m 0,0 km/h (0 Bft) S 180 13,1 C 14,1 C 0,0 km/h (0 Bft)
16.06.2013 02:45 14,0 C 95 % 1020,9 hPa 0,0 l/m 0,0 km/h (0 Bft) O-NO 67 13,2 C 14,1 C 0,0 km/h (0 Bft)
16.06.2013 02:50 14,0 C 95 % 1020,9 hPa 0,0 l/m 0,0 km/h (0 Bft) W-SW 247 13,2 C 14,1 C 0,0 km/h (0 Bft)
16.06.2013 02:55 14,0 C 95 % 1020,9 hPa 0,0 l/m 0,0 km/h (0 Bft) O-NO 67 13,2 C 14,1 C 0,0 km/h (0 Bft)
16.06.2013 03:00 13,9 C 95 % 1020,9 hPa 0,0 l/m 0,3 km/h (0 Bft) SO 135 13,1 C 14,1 C 0,0 km/h (0 Bft)
16.06.2013 03:05 13,9 C 95 % 1020,7 hPa 0,0 l/m 0,5 km/h (0 Bft) O-NO 67 13,1 C 14,1 C 0,0 km/h (0 Bft)
16.06.2013 03:11 13,9 C 95 % 1020,7 hPa 0,0 l/m 0,5 km/h (0 Bft) O 90 13,1 C 14,0 C 0,0 km/h (0 Bft)
16.06.2013 03:15 13,9 C 95 % 1020,7 hPa 0,0 l/m 0,5 km/h (0 Bft) O-NO 67 13,1 C 14,0 C 0,0 km/h (0 Bft)
16.06.2013 03:20 13,8 C 95 % 1020,7 hPa 0,0 l/m 0,3 km/h (0 Bft) S 180 13,0 C 13,9 C 0,0 km/h (0 Bft)
16.06.2013 03:25 13,7 C 95 % 1020,5 hPa 0,0 l/m 0,2 km/h (0 Bft) SO 135 12,9 C 13,8 C 0,0 km/h (0 Bft)
16.06.2013 03:30 13,6 C 95 % 1020,5 hPa 0,0 l/m 0,2 km/h (0 Bft) O-SO 112 12,8 C 13,6 C 2,6 km/h (1 Bft)
16.06.2013 03:35 13,4 C 95 % 1020,5 hPa 0,0 l/m 0,2 km/h (0 Bft) O-SO 112 12,6 C 13,6 C 0,0 km/h (0 Bft)
16.06.2013 03:40 13,2 C 95 % 1020,5 hPa 0,0 l/m 0,6 km/h (0 Bft) N-NO 22 12,4 C 13,4 C 0,0 km/h (0 Bft)
16.06.2013 03:45 13,1 C 95 % 1020,5 hPa 0,0 l/m 0,5 km/h (0 Bft) N 360 12,3 C 13,3 C 0,0 km/h (0 Bft)
16.06.2013 03:50 12,8 C 96 % 1020,5 hPa 0,0 l/m 0,0 km/h (0 Bft) N-NO 22 12,2 C 13,1 C 0,0 km/h (0 Bft)
16.06.2013 03:55 13,0 C 95 % 1020,5 hPa 0,0 l/m 0,0 km/h (0 Bft) NO 45 12,2 C 13,0 C 0,0 km/h (0 Bft)
16.06.2013 04:00 13,1 C 95 % 1020,5 hPa 0,0 l/m 0,0 km/h (0 Bft) W-NW 292 12,3 C 13,0 C 0,0 km/h (0 Bft)
16.06.2013 04:05 13,1 C 95 % 1020,8 hPa 0,0 l/m 0,0 km/h (0 Bft) W-NW 292 12,3 C 13,0 C 0,0 km/h (0 Bft)
16.06.2013 04:10 13,1 C 95 % 1020,8 hPa 0,0 l/m 0,0 km/h (0 Bft) N-NO 22 12,3 C 13,1 C 0,0 km/h (0 Bft)
16.06.2013 04:15 13,1 C 95 % 1020,8 hPa 0,0 l/m 0,0 km/h (0 Bft) S-SW 202 12,3 C 13,1 C 0,0 km/h (0 Bft)
16.06.2013 04:20 13,1 C 95 % 1020,8 hPa 0,0 l/m 0,0 km/h (0 Bft) NO 45 12,3 C 13,1 C 0,0 km/h (0 Bft)
16.06.2013 04:25 13,0 C 95 % 1020,7 hPa 0,0 l/m 0,0 km/h (0 Bft) NO 45 12,2 C 13,0 C 0,0 km/h (0 Bft)
16.06.2013 04:30 12,9 C 96 % 1020,7 hPa 0,0 l/m 0,0 km/h (0 Bft) SO 135 12,3 C 12,9 C 1,6 km/h (1 Bft)
16.06.2013 04:35 12,7 C 95 % 1020,7 hPa 0,0 l/m 0,2 km/h (0 Bft) S 180 11,9 C 12,9 C 0,0 km/h (0 Bft)
16.06.2013 04:40 12,7 C 95 % 1020,7 hPa 0,0 l/m 0,5 km/h (0 Bft) S-SW 202 11,9 C 12,9 C 2,9 km/h (1 Bft)
16.06.2013 04:45 12,6 C 95 % 1020,6 hPa 0,0 l/m 0,3 km/h (0 Bft) SO 135 11,8 C 12,8 C 0,0 km/h (0 Bft)
16.06.2013 04:50 12,5 C 95 % 1020,6 hPa 0,0 l/m 0,2 km/h (0 Bft) S-SW 202 11,7 C 12,6 C 2,6 km/h (1 Bft)
16.06.2013 04:55 12,5 C 95 % 1020,6 hPa 0,0 l/m 0,5 km/h (0 Bft) SO 135 11,7 C 12,6 C 0,0 km/h (0 Bft)
16.06.2013 05:00 12,5 C 95 % 1020,6 hPa 0,0 l/m 0,5 km/h (0 Bft) W-SW 247 11,7 C 12,5 C 0,0 km/h (0 Bft)
16.06.2013 05:05 12,6 C 95 % 1020,8 hPa 0,0 l/m 0,5 km/h (0 Bft) S 180 11,8 C 12,6 C 2,6 km/h (1 Bft)
16.06.2013 05:10 12,7 C 96 % 1020,8 hPa 0,0 l/m 1,4 km/h (1 Bft) N-NO 22 12,1 C 12,7 C 0,0 km/h (0 Bft)
16.06.2013 05:15 12,8 C 95 % 1020,8 hPa 0,0 l/m 1,3 km/h (1 Bft) N-NO 22 12,0 C 12,7 C 0,0 km/h (0 Bft)
16.06.2013 05:20 12,7 C 96 % 1020,8 hPa 0,0 l/m 0,0 km/h (0 Bft) W-NW 292 12,1 C 12,7 C 0,0 km/h (0 Bft)
16.06.2013 05:25 12,7 C 96 % 1021,2 hPa 0,0 l/m 0,3 km/h (0 Bft) S 180 12,1 C 12,8 C 0,0 km/h (0 Bft)
16.06.2013 05:30 13,0 C 95 % 1021,2 hPa 0,0 l/m 1,6 km/h (1 Bft) NO 45 12,2 C 12,9 C 3,4 km/h (1 Bft)
16.06.2013 05:35 12,9 C 96 % 1021,2 hPa 0,0 l/m 2,3 km/h (1 Bft) NO 45 12,3 C 12,9 C 3,4 km/h (1 Bft)
16.06.2013 05:40 12,8 C 96 % 1021,2 hPa 0,0 l/m 2,6 km/h (1 Bft) NO 45 12,2 C 12,9 C 0,0 km/h (0 Bft)
16.06.2013 05:45 12,6 C 96 % 1020,9 hPa 0,0 l/m 1,8 km/h (1 Bft) O-SO 112 12,0 C 12,8 C 1,6 km/h (1 Bft)
16.06.2013 05:50 12,5 C 96 % 1020,9 hPa 0,0 l/m 0,3 km/h (0 Bft) O-SO 112 11,9 C 12,7 C 0,0 km/h (0 Bft)
16.06.2013 05:55 12,7 C 96 % 1020,9 hPa 0,0 l/m 0,5 km/h (0 Bft) O 90 12,1 C 12,7 C 0,0 km/h (0 Bft)
16.06.2013 06:00 12,8 C 96 % 1020,9 hPa 0,0 l/m 1,1 km/h (1 Bft) NO 45 12,2 C 12,8 C 2,6 km/h (1 Bft)
16.06.2013 06:05 12,7 C 96 % 1021,1 hPa 0,0 l/m 1,1 km/h (1 Bft) O 90 12,1 C 12,9 C 0,0 km/h (0 Bft)
16.06.2013 06:10 13,1 C 95 % 1021,1 hPa 0,0 l/m 0,3 km/h (0 Bft) S-SW 202 12,3 C 12,9 C 0,0 km/h (0 Bft)
16.06.2013 06:15 13,1 C 95 % 1021,1 hPa 0,0 l/m 0,2 km/h (0 Bft) O-SO 112 12,3 C 13,1 C 0,0 km/h (0 Bft)
16.06.2013 06:20 13,0 C 95 % 1021,1 hPa 0,0 l/m 0,2 km/h (0 Bft) O-SO 112 12,2 C 13,1 C 0,0 km/h (0 Bft)
16.06.2013 06:25 13,2 C 95 % 1021,1 hPa 0,0 l/m 0,0 km/h (0 Bft) S 180 12,4 C 13,2 C 0,0 km/h (0 Bft)
16.06.2013 06:30 13,7 C 95 % 1021,1 hPa 0,0 l/m 0,2 km/h (0 Bft) S 180 12,9 C 13,5 C 0,0 km/h (0 Bft)
16.06.2013 06:35 13,9 C 95 % 1021,1 hPa 0,0 l/m 0,2 km/h (0 Bft) S-SW 202 13,1 C 13,7 C 0,0 km/h (0 Bft)
16.06.2013 06:40 14,7 C 95 % 1021,1 hPa 0,0 l/m 0,0 km/h (0 Bft) S 180 13,9 C 14,8 C 0,0 km/h (0 Bft)
16.06.2013 06:45 15,3 C 94 % 1021,4 hPa 0,0 l/m 0,0 km/h (0 Bft) S-SW 202 14,3 C 15,3 C 0,0 km/h (0 Bft)
16.06.2013 06:50 14,3 C 94 % 1021,4 hPa 0,0 l/m 1,9 km/h (1 Bft) W-SW 247 13,3 C 15,3 C 5,3 km/h (1 Bft)
16.06.2013 06:55 14,0 C 94 % 1021,4 hPa 0,0 l/m 2,7 km/h (1 Bft) W 270 13,0 C 14,9 C 0,0 km/h (0 Bft)
16.06.2013 07:00 13,8 C 94 % 1021,4 hPa 0,0 l/m 1,3 km/h (1 Bft) N 360 12,9 C 14,6 C 0,0 km/h (0 Bft)
16.06.2013 07:05 14,0 C 94 % 1021,5 hPa 0,0 l/m 0,2 km/h (0 Bft) NO 45 13,0 C 14,5 C 0,0 km/h (0 Bft)
16.06.2013 07:10 14,1 C 94 % 1021,5 hPa 0,0 l/m 0,0 km/h (0 Bft) N 360 13,1 C 14,8 C 0,0 km/h (0 Bft)
16.06.2013 07:15 14,1 C 94 % 1021,5 hPa 0,0 l/m 0,0 km/h (0 Bft) N 360 13,1 C 14,8 C 0,0 km/h (0 Bft)
16.06.2013 07:20 14,4 C 94 % 1021,5 hPa 0,0 l/m 0,0 km/h (0 Bft) N 360 13,4 C 15,0 C 0,0 km/h (0 Bft)
16.06.2013 07:25 15,0 C 94 % 1021,6 hPa 0,0 l/m 0,0 km/h (0 Bft) N-NW 337 14,0 C 15,2 C 0,0 km/h (0 Bft)
16.06.2013 07:30 15,1 C 94 % 1021,6 hPa 0,0 l/m 0,0 km/h (0 Bft) N-NW 337 14,1 C 15,8 C 0,0 km/h (0 Bft)
16.06.2013 07:35 15,8 C 94 % 1021,6 hPa 0,0 l/m 0,0 km/h (0 Bft) N-NW 337 14,8 C 16,2 C 0,0 km/h (0 Bft)
16.06.2013 07:40 16,8 C 93 % 1021,6 hPa 0,0 l/m 0,0 km/h (0 Bft) W-SW 247 15,7 C 17,3 C 0,0 km/h (0 Bft)
16.06.2013 07:45 17,1 C 92 % 1021,4 hPa 0,0 l/m 0,0 km/h (0 Bft) W-NW 292 15,8 C 17,8 C 1,6 km/h (1 Bft)
16.06.2013 07:50 17,4 C 91 % 1021,4 hPa 0,0 l/m 1,0 km/h (0 Bft) W 270 15,9 C 18,5 C 2,9 km/h (1 Bft)
16.06.2013 07:55 17,2 C 90 % 1021,4 hPa 0,0 l/m 1,8 km/h (1 Bft) W-NW 292 15,5 C 18,5 C 2,9 km/h (1 Bft)
16.06.2013 08:00 17,8 C 90 % 1021,4 hPa 0,0 l/m 1,1 km/h (1 Bft) W 270 16,1 C 19,1 C 0,0 km/h (0 Bft)
16.06.2013 08:05 17,9 C 89 % 1021,5 hPa 0,0 l/m 0,5 km/h (0 Bft) N-NO 22 16,1 C 19,7 C 2,1 km/h (1 Bft)
16.06.2013 08:10 18,2 C 88 % 1021,5 hPa 0,0 l/m 0,5 km/h (0 Bft) W-NW 292 16,2 C 20,2 C 0,0 km/h (0 Bft)
16.06.2013 08:15 19,7 C 88 % 1021,5 hPa 0,0 l/m 0,5 km/h (0 Bft) W 270 17,7 C 20,8 C 0,0 km/h (0 Bft)
16.06.2013 08:20 18,8 C 86 % 1021,5 hPa 0,0 l/m 0,2 km/h (0 Bft) W-NW 292 16,4 C 21,3 C 1,6 km/h (1 Bft)
16.06.2013 08:25 19,4 C 86 % 1021,7 hPa 0,0 l/m 0,2 km/h (0 Bft) S-SO 157 17,0 C 21,4 C 0,0 km/h (0 Bft)
16.06.2013 08:30 19,5 C 85 % 1021,7 hPa 0,0 l/m 0,3 km/h (0 Bft) N 360 16,9 C 21,9 C 1,8 km/h (1 Bft)
16.06.2013 08:35 20,8 C 85 % 1021,7 hPa 0,0 l/m 0,2 km/h (0 Bft) N-NO 22 18,2 C 22,4 C 0,0 km/h (0 Bft)
16.06.2013 08:40 20,4 C 83 % 1021,7 hPa 0,0 l/m 0,3 km/h (0 Bft) W-NW 292 17,4 C 23,5 C 0,0 km/h (0 Bft)
16.06.2013 08:45 20,5 C 82 % 1022,0 hPa 0,0 l/m 0,6 km/h (0 Bft) S 180 17,3 C 23,5 C 2,3 km/h (1 Bft)
16.06.2013 08:50 20,0 C 81 % 1022,0 hPa 0,0 l/m 0,8 km/h (0 Bft) N 360 16,6 C 23,8 C 2,6 km/h (1 Bft)
16.06.2013 08:55 20,4 C 83 % 1022,0 hPa 0,0 l/m 0,6 km/h (0 Bft) N-NO 22 17,4 C 23,8 C 0,0 km/h (0 Bft)
16.06.2013 09:00 21,0 C 84 % 1022,0 hPa 0,0 l/m 1,4 km/h (1 Bft) SO 135 18,2 C 23,7 C 3,9 km/h (1 Bft)
16.06.2013 09:05 20,8 C 83 % 1022,2 hPa 0,0 l/m 1,9 km/h (1 Bft) O 90 17,8 C 23,7 C 2,9 km/h (1 Bft)
16.06.2013 09:10 20,2 C 83 % 1022,2 hPa 0,0 l/m 2,1 km/h (1 Bft) N 360 17,2 C 23,4 C 0,0 km/h (0 Bft)
16.06.2013 09:15 20,6 C 83 % 1022,2 hPa 0,0 l/m 1,4 km/h (1 Bft) N-NO 22 17,6 C 23,5 C 3,4 km/h (1 Bft)
16.06.2013 09:20 20,7 C 84 % 1022,2 hPa 0,0 l/m 1,3 km/h (1 Bft) S 180 17,9 C 23,3 C 0,0 km/h (0 Bft)
16.06.2013 09:25 21,3 C 84 % 1021,9 hPa 0,0 l/m 1,3 km/h (1 Bft) N-NW 337 18,5 C 23,5 C 0,0 km/h (0 Bft)
16.06.2013 09:30 21,2 C 83 % 1021,9 hPa 0,0 l/m 0,5 km/h (0 Bft) W-SW 247 18,2 C 24,3 C 1,9 km/h (1 Bft)
16.06.2013 09:35 20,4 C 83 % 1021,9 hPa 0,0 l/m 1,4 km/h (1 Bft) N 360 17,4 C 23,8 C 2,7 km/h (1 Bft)
16.06.2013 09:40 21,9 C 83 % 1021,9 hPa 0,0 l/m 1,6 km/h (1 Bft) N 360 18,9 C 23,7 C 2,6 km/h (1 Bft)
16.06.2013 09:45 20,9 C 79 % 1022,2 hPa 0,0 l/m 1,8 km/h (1 Bft) NO 45 17,1 C 23,8 C 3,7 km/h (1 Bft)
16.06.2013 09:50 21,1 C 82 % 1022,2 hPa 0,0 l/m 2,6 km/h (1 Bft) N-NO 22 17,9 C 23,5 C 5,0 km/h (1 Bft)
16.06.2013 09:55 21,4 C 79 % 1022,2 hPa 0,0 l/m 2,4 km/h (1 Bft) N-NO 22 17,6 C 22,9 C 0,0 km/h (0 Bft)
16.06.2013 10:00 22,1 C 73 % 1022,2 hPa 0,0 l/m 3,1 km/h (1 Bft) W 270 17,0 C 23,5 C 7,6 km/h (2 Bft)
16.06.2013 10:05 22,0 C 70 % 1021,9 hPa 0,0 l/m 3,2 km/h (1 Bft) S-SW 202 16,3 C 23,1 C 0,0 km/h (0 Bft)
16.06.2013 10:10 23,2 C 74 % 1021,9 hPa 0,0 l/m 3,4 km/h (1 Bft) W-SW 247 18,3 C 23,7 C 4,2 km/h (1 Bft)
16.06.2013 10:15 23,4 C 72 % 1021,9 hPa 0,0 l/m 2,7 km/h (1 Bft) N 360 18,1 C 24,0 C 5,6 km/h (1 Bft)
16.06.2013 10:20 22,6 C 69 % 1021,9 hPa 0,0 l/m 3,5 km/h (1 Bft) NW 315 16,6 C 24,4 C 5,0 km/h (1 Bft)
16.06.2013 10:25 22,5 C 67 % 1022,0 hPa 0,0 l/m 3,5 km/h (1 Bft) W-SW 247 16,1 C 24,3 C 4,5 km/h (1 Bft)
16.06.2013 10:30 22,6 C 67 % 1022,0 hPa 0,0 l/m 3,1 km/h (1 Bft) SO 135 16,2 C 24,5 C 1,6 km/h (1 Bft)
16.06.2013 10:35 23,1 C 56 % 1022,0 hPa 0,0 l/m 3,2 km/h (1 Bft) W-SW 247 13,8 C 25,0 C 4,5 km/h (1 Bft)
16.06.2013 10:40 22,9 C 57 % 1022,0 hPa 0,0 l/m 2,7 km/h (1 Bft) N-NW 337 13,9 C 24,6 C 7,7 km/h (2 Bft)
16.06.2013 10:45 23,1 C 55 % 1022,2 hPa 0,0 l/m 2,7 km/h (1 Bft) N-NW 337 13,6 C 25,2 C 0,0 km/h (0 Bft)
16.06.2013 10:50 22,6 C 55 % 1022,2 hPa 0,0 l/m 2,6 km/h (1 Bft) N-NO 22 13,1 C 25,7 C 7,9 km/h (2 Bft)
16.06.2013 10:55 22,3 C 57 % 1022,2 hPa 0,0 l/m 3,4 km/h (1 Bft) N-NW 337 13,4 C 24,7 C 7,9 km/h (2 Bft)
16.06.2013 11:00 24,0 C 56 % 1022,2 hPa 0,0 l/m 2,7 km/h (1 Bft) W-NW 292 14,7 C 25,1 C 3,7 km/h (1 Bft)
16.06.2013 11:05 24,3 C 54 % 1022,7 hPa 0,0 l/m 2,3 km/h (1 Bft) W-SW 247 14,4 C 25,6 C 0,0 km/h (0 Bft)
16.06.2013 11:10 24,0 C 54 % 1022,7 hPa 0,0 l/m 3,2 km/h (1 Bft) W-NW 292 14,1 C 25,4 C 8,5 km/h (2 Bft)
16.06.2013 11:15 23,6 C 54 % 1022,7 hPa 0,0 l/m 4,2 km/h (1 Bft) W-NW 292 13,7 C 24,7 C 3,5 km/h (1 Bft)
16.06.2013 11:20 23,8 C 56 % 1022,7 hPa 0,0 l/m 3,7 km/h (1 Bft) W-NW 292 14,5 C 24,8 C 1,8 km/h (1 Bft)
16.06.2013 11:25 24,5 C 53 % 1022,2 hPa 0,0 l/m 2,9 km/h (1 Bft) N 360 14,3 C 25,2 C 6,8 km/h (2 Bft)
16.06.2013 11:30 24,3 C 54 % 1022,2 hPa 0,0 l/m 2,4 km/h (1 Bft) W-SW 247 14,4 C 25,6 C 7,9 km/h (2 Bft)
16.06.2013 11:35 24,4 C 54 % 1022,2 hPa 0,0 l/m 2,9 km/h (1 Bft) W-NW 292 14,5 C 25,4 C 4,2 km/h (1 Bft)
16.06.2013 11:40 24,6 C 56 % 1022,2 hPa 0,0 l/m 3,1 km/h (1 Bft) N-NW 337 15,2 C 25,6 C 1,9 km/h (1 Bft)
16.06.2013 11:45 25,2 C 55 % 1022,3 hPa 0,0 l/m 2,1 km/h (1 Bft) S-SW 202 15,5 C 26,0 C 2,7 km/h (1 Bft)
16.06.2013 11:50 24,5 C 53 % 1022,3 hPa 0,0 l/m 2,9 km/h (1 Bft) W 270 14,3 C 26,0 C 5,1 km/h (1 Bft)
16.06.2013 11:55 24,4 C 54 % 1022,3 hPa 0,0 l/m 3,4 km/h (1 Bft) N-NW 337 14,5 C 26,1 C 5,8 km/h (2 Bft)
16.06.2013 12:00 24,9 C 54 % 1022,3 hPa 0,0 l/m 3,2 km/h (1 Bft) W-NW 292 14,9 C 26,0 C 4,8 km/h (1 Bft)
16.06.2013 12:05 24,7 C 54 % 1022,2 hPa 0,0 l/m 3,7 km/h (1 Bft) W-NW 292 14,8 C 25,8 C 4,0 km/h (1 Bft)
16.06.2013 12:10 24,2 C 53 % 1022,2 hPa 0,0 l/m 3,2 km/h (1 Bft) W-NW 292 14,0 C 26,4 C 3,4 km/h (1 Bft)
16.06.2013 12:15 23,8 C 53 % 1022,2 hPa 0,0 l/m 2,7 km/h (1 Bft) W-NW 292 13,6 C 26,1 C 3,2 km/h (1 Bft)
16.06.2013 12:20 23,8 C 56 % 1022,2 hPa 0,0 l/m 3,2 km/h (1 Bft) W 270 14,5 C 25,6 C 6,4 km/h (2 Bft)
16.06.2013 12:25 23,8 C 56 % 1022,3 hPa 0,0 l/m 3,2 km/h (1 Bft) W-NW 292 14,5 C 24,9 C 4,2 km/h (1 Bft)
16.06.2013 12:30 24,1 C 56 % 1022,3 hPa 0,0 l/m 2,9 km/h (1 Bft) S-SW 202 14,8 C 25,0 C 2,6 km/h (1 Bft)
16.06.2013 12:35 24,1 C 54 % 1022,3 hPa 0,0 l/m 3,1 km/h (1 Bft) W 270 14,2 C 24,9 C 5,3 km/h (1 Bft)
16.06.2013 12:40 25,0 C 53 % 1022,3 hPa 0,0 l/m 3,4 km/h (1 Bft) W 270 14,7 C 25,5 C 3,9 km/h (1 Bft)
16.06.2013 12:45 24,2 C 52 % 1022,1 hPa 0,0 l/m 3,5 km/h (1 Bft) W 270 13,7 C 25,4 C 2,7 km/h (1 Bft)
16.06.2013 12:50 24,3 C 54 % 1022,1 hPa 0,0 l/m 3,7 km/h (1 Bft) S-SW 202 14,4 C 25,5 C 6,4 km/h (2 Bft)
16.06.2013 12:55 25,1 C 52 % 1022,1 hPa 0,0 l/m 3,5 km/h (1 Bft) W-SW 247 14,5 C 25,8 C 3,2 km/h (1 Bft)
16.06.2013 13:00 25,6 C 53 % 1022,1 hPa 0,0 l/m 3,4 km/h (1 Bft) W-NW 292 15,3 C 26,7 C 9,3 km/h (2 Bft)
16.06.2013 13:05 26,4 C 48 % 1022,1 hPa 0,0 l/m 3,4 km/h (1 Bft) S 180 14,5 C 27,4 C 8,4 km/h (2 Bft)
16.06.2013 13:10 26,4 C 42 % 1022,1 hPa 0,0 l/m 4,0 km/h (1 Bft) S-SO 157 12,4 C 27,6 C 3,5 km/h (1 Bft)
16.06.2013 13:15 25,9 C 46 % 1022,1 hPa 0,0 l/m 4,3 km/h (1 Bft) N-NO 22 13,4 C 27,7 C 4,5 km/h (1 Bft)
16.06.2013 13:20 24,8 C 50 % 1022,1 hPa 0,0 l/m 3,2 km/h (1 Bft) N-NO 22 13,7 C 27,1 C 2,9 km/h (1 Bft)
16.06.2013 13:25 25,7 C 49 % 1021,9 hPa 0,0 l/m 3,2 km/h (1 Bft) S-SW 202 14,2 C 27,1 C 6,4 km/h (2 Bft)
16.06.2013 13:30 25,9 C 46 % 1021,9 hPa 0,0 l/m 4,2 km/h (1 Bft) W-NW 292 13,4 C 27,3 C 10,6 km/h (2 Bft)
16.06.2013 13:35 25,7 C 47 % 1021,9 hPa 0,0 l/m 5,0 km/h (1 Bft) W-SW 247 13,5 C 27,3 C 4,7 km/h (1 Bft)
16.06.2013 13:40 26,4 C 47 % 1021,9 hPa 0,0 l/m 4,0 km/h (1 Bft) W 270 14,2 C 27,8 C 2,1 km/h (1 Bft)
16.06.2013 13:45 26,8 C 45 % 1021,9 hPa 0,0 l/m 3,2 km/h (1 Bft) W 270 13,9 C 28,3 C 4,5 km/h (1 Bft)
16.06.2013 13:50 25,6 C 48 % 1021,9 hPa 0,0 l/m 3,7 km/h (1 Bft) N-NW 337 13,8 C 28,1 C 3,4 km/h (1 Bft)
16.06.2013 13:55 24,7 C 49 % 1021,9 hPa 0,0 l/m 4,2 km/h (1 Bft) N-NW 337 13,3 C 27,1 C 6,1 km/h (2 Bft)
16.06.2013 14:00 24,2 C 53 % 1021,9 hPa 0,0 l/m 3,4 km/h (1 Bft) N-NO 22 14,0 C 26,5 C 6,9 km/h (2 Bft)
16.06.2013 14:05 23,9 C 52 % 1021,8 hPa 0,0 l/m 3,2 km/h (1 Bft) N-NW 337 13,4 C 26,1 C 5,0 km/h (1 Bft)
16.06.2013 14:11 24,0 C 52 % 1021,8 hPa 0,0 l/m 2,9 km/h (1 Bft) O-NO 67 13,5 C 26,1 C 0,0 km/h (0 Bft)
16.06.2013 14:15 25,1 C 51 % 1021,8 hPa 0,0 l/m 3,2 km/h (1 Bft) N 360 14,2 C 26,4 C 4,8 km/h (1 Bft)
16.06.2013 14:20 26,4 C 47 % 1021,8 hPa 0,0 l/m 4,3 km/h (1 Bft) W-SW 247 14,2 C 27,3 C 10,8 km/h (2 Bft)
16.06.2013 14:25 26,8 C 46 % 1021,7 hPa 0,0 l/m 4,7 km/h (1 Bft) S 180 14,2 C 28,0 C 0,0 km/h (0 Bft)
16.06.2013 14:30 25,4 C 48 % 1021,7 hPa 0,0 l/m 4,7 km/h (1 Bft) W-SW 247 13,6 C 28,0 C 8,9 km/h (2 Bft)
16.06.2013 14:35 25,5 C 50 % 1021,7 hPa 0,0 l/m 4,3 km/h (1 Bft) W-NW 292 14,3 C 26,9 C 6,6 km/h (2 Bft)
16.06.2013 14:40 24,6 C 49 % 1021,7 hPa 0,0 l/m 5,0 km/h (1 Bft) W-NW 292 13,2 C 27,0 C 6,1 km/h (2 Bft)
16.06.2013 14:45 24,6 C 52 % 1021,6 hPa 0,0 l/m 3,9 km/h (1 Bft) S 180 14,1 C 26,4 C 2,9 km/h (1 Bft)
16.06.2013 14:50 23,9 C 53 % 1021,6 hPa 0,0 l/m 3,4 km/h (1 Bft) N 360 13,7 C 26,0 C 2,6 km/h (1 Bft)
16.06.2013 14:55 25,8 C 51 % 1021,6 hPa 0,0 l/m 2,9 km/h (1 Bft) W-NW 292 14,9 C 26,4 C 4,8 km/h (1 Bft)
16.06.2013 15:00 26,2 C 47 % 1021,6 hPa 0,0 l/m 3,1 km/h (1 Bft) N-NW 337 14,0 C 27,9 C 4,5 km/h (1 Bft)
16.06.2013 15:05 26,8 C 46 % 1021,4 hPa 0,0 l/m 3,4 km/h (1 Bft) N-NO 22 14,2 C 28,4 C 0,0 km/h (0 Bft)
16.06.2013 15:10 27,5 C 46 % 1021,4 hPa 0,0 l/m 1,8 km/h (1 Bft) W-SW 247 14,8 C 29,6 C 2,9 km/h (1 Bft)
16.06.2013 15:15 27,8 C 45 % 1021,4 hPa 0,0 l/m 1,8 km/h (1 Bft) O-NO 67 14,8 C 30,1 C 2,9 km/h (1 Bft)
16.06.2013 15:20 27,8 C 42 % 1021,4 hPa 0,0 l/m 2,9 km/h (1 Bft) S 180 13,7 C 30,6 C 4,2 km/h (1 Bft)
16.06.2013 15:25 27,7 C 44 % 1021,3 hPa 0,0 l/m 2,9 km/h (1 Bft) O-SO 112 14,3 C 30,7 C 3,5 km/h (1 Bft)
16.06.2013 15:30 27,4 C 45 % 1021,3 hPa 0,0 l/m 4,3 km/h (1 Bft) S 180 14,4 C 29,7 C 5,3 km/h (1 Bft)
16.06.2013 15:35 27,5 C 45 % 1021,3 hPa 0,0 l/m 4,7 km/h (1 Bft) W-SW 247 14,5 C 29,6 C 6,9 km/h (2 Bft)
16.06.2013 15:40 26,4 C 47 % 1021,3 hPa 0,0 l/m 4,0 km/h (1 Bft) S 180 14,2 C 29,5 C 3,9 km/h (1 Bft)
16.06.2013 15:45 27,4 C 46 % 1021,1 hPa 0,0 l/m 3,1 km/h (1 Bft) W-SW 247 14,7 C 29,4 C 3,1 km/h (1 Bft)
16.06.2013 15:50 27,4 C 44 % 1021,1 hPa 0,0 l/m 2,6 km/h (1 Bft) N 360 14,0 C 30,6 C 5,1 km/h (1 Bft)
16.06.2013 15:55 27,9 C 44 % 1021,1 hPa 0,0 l/m 2,4 km/h (1 Bft) W-NW 292 14,5 C 31,2 C 3,2 km/h (1 Bft)
16.06.2013 16:00 27,6 C 42 % 1021,1 hPa 0,0 l/m 3,1 km/h (1 Bft) W-NW 292 13,5 C 31,3 C 8,7 km/h (2 Bft)
16.06.2013 16:05 27,5 C 44 % 1021,2 hPa 0,0 l/m 3,9 km/h (1 Bft) S 180 14,1 C 30,9 C 2,4 km/h (1 Bft)
16.06.2013 16:10 27,1 C 41 % 1021,2 hPa 0,0 l/m 3,9 km/h (1 Bft) N 360 12,7 C 31,1 C 4,8 km/h (1 Bft)
16.06.2013 16:15 27,2 C 43 % 1021,2 hPa 0,0 l/m 3,2 km/h (1 Bft) NW 315 13,5 C 31,3 C 4,5 km/h (1 Bft)
16.06.2013 16:20 27,1 C 44 % 1021,2 hPa 0,0 l/m 3,5 km/h (1 Bft) SO 135 13,8 C 31,3 C 0,0 km/h (0 Bft)
16.06.2013 16:25 27,8 C 44 % 1021,2 hPa 0,0 l/m 3,4 km/h (1 Bft) W 270 14,4 C 31,6 C 3,9 km/h (1 Bft)
16.06.2013 16:30 27,9 C 44 % 1021,2 hPa 0,0 l/m 4,0 km/h (1 Bft) W 270 14,5 C 31,7 C 6,4 km/h (2 Bft)
16.06.2013 16:35 27,5 C 44 % 1021,2 hPa 0,0 l/m 4,8 km/h (1 Bft) NW 315 14,1 C 31,3 C 4,7 km/h (1 Bft)
16.06.2013 16:40 26,5 C 45 % 1021,2 hPa 0,0 l/m 4,3 km/h (1 Bft) NW 315 13,6 C 30,8 C 0,0 km/h (0 Bft)
16.06.2013 16:45 26,8 C 46 % 1021,3 hPa 0,0 l/m 2,9 km/h (1 Bft) W-NW 292 14,2 C 31,5 C 4,3 km/h (1 Bft)
16.06.2013 16:50 26,2 C 46 % 1021,3 hPa 0,0 l/m 2,1 km/h (1 Bft) N 360 13,6 C 31,9 C 6,1 km/h (2 Bft)
16.06.2013 16:55 25,3 C 49 % 1021,3 hPa 0,0 l/m 3,1 km/h (1 Bft) N-NW 337 13,8 C 31,0 C 5,0 km/h (1 Bft)
16.06.2013 17:00 25,2 C 52 % 1021,3 hPa 0,0 l/m 3,9 km/h (1 Bft) NO 45 14,6 C 30,8 C 6,4 km/h (2 Bft)
16.06.2013 17:05 25,1 C 49 % 1021,1 hPa 0,0 l/m 3,9 km/h (1 Bft) N-NW 337 13,6 C 31,1 C 4,7 km/h (1 Bft)
16.06.2013 17:10 25,7 C 54 % 1021,1 hPa 0,0 l/m 3,4 km/h (1 Bft) W-SW 247 15,7 C 31,3 C 3,9 km/h (1 Bft)
16.06.2013 17:15 25,8 C 53 % 1021,1 hPa 0,0 l/m 3,1 km/h (1 Bft) W 270 15,5 C 31,8 C 4,5 km/h (1 Bft)
16.06.2013 17:20 25,3 C 51 % 1021,1 hPa 0,0 l/m 3,2 km/h (1 Bft) N-NW 337 14,4 C 31,5 C 5,6 km/h (1 Bft)
16.06.2013 17:25 25,2 C 52 % 1021,1 hPa 0,0 l/m 3,7 km/h (1 Bft) NW 315 14,6 C 30,7 C 4,0 km/h (1 Bft)
16.06.2013 17:30 25,3 C 55 % 1021,1 hPa 0,0 l/m 3,1 km/h (1 Bft) N-NW 337 15,6 C 30,6 C 9,3 km/h (2 Bft)
16.06.2013 17:35 25,0 C 52 % 1021,1 hPa 0,0 l/m 3,1 km/h (1 Bft) N 360 14,4 C 30,9 C 6,1 km/h (2 Bft)
16.06.2013 17:40 25,2 C 53 % 1021,1 hPa 0,0 l/m 4,2 km/h (1 Bft) W-NW 292 14,9 C 30,8 C 11,4 km/h (2 Bft)
16.06.2013 17:45 24,5 C 55 % 1020,9 hPa 0,0 l/m 4,0 km/h (1 Bft) N-NW 337 14,9 C 30,4 C 5,8 km/h (2 Bft)
16.06.2013 17:50 23,8 C 54 % 1020,9 hPa 0,0 l/m 3,4 km/h (1 Bft) NW 315 13,9 C 28,8 C 3,4 km/h (1 Bft)
16.06.2013 17:55 23,5 C 56 % 1020,9 hPa 0,0 l/m 2,7 km/h (1 Bft) NO 45 14,2 C 27,4 C 2,1 km/h (1 Bft)
16.06.2013 18:00 23,3 C 57 % 1020,9 hPa 0,0 l/m 1,0 km/h (0 Bft) N-NW 337 14,3 C 27,0 C 0,0 km/h (0 Bft)
16.06.2013 18:05 23,5 C 57 % 1020,4 hPa 0,0 l/m 0,6 km/h (0 Bft) NO 45 14,5 C 26,8 C 2,6 km/h (1 Bft)
16.06.2013 18:11 24,6 C 56 % 1020,4 hPa 0,0 l/m 0,5 km/h (0 Bft) W-SW 247 15,2 C 28,1 C 0,0 km/h (0 Bft)
16.06.2013 18:15 25,3 C 53 % 1020,4 hPa 0,0 l/m 0,5 km/h (0 Bft) S 180 15,0 C 30,6 C 3,4 km/h (1 Bft)
16.06.2013 18:20 25,5 C 55 % 1020,4 hPa 0,0 l/m 1,9 km/h (1 Bft) W-NW 292 15,8 C 31,8 C 6,3 km/h (2 Bft)
16.06.2013 18:25 25,1 C 53 % 1020,4 hPa 0,0 l/m 3,7 km/h (1 Bft) N-NW 337 14,8 C 31,5 C 7,6 km/h (2 Bft)
16.06.2013 18:30 24,8 C 53 % 1020,4 hPa 0,0 l/m 5,0 km/h (1 Bft) N-NW 337 14,6 C 30,7 C 12,7 km/h (3 Bft)
16.06.2013 18:35 24,9 C 52 % 1020,4 hPa 0,0 l/m 4,3 km/h (1 Bft) N-NW 337 14,4 C 30,7 C 6,9 km/h (2 Bft)
16.06.2013 18:40 24,9 C 54 % 1020,4 hPa 0,0 l/m 4,5 km/h (1 Bft) N-NW 337 14,9 C 30,4 C 3,7 km/h (1 Bft)
16.06.2013 18:45 25,0 C 54 % 1020,4 hPa 0,0 l/m 4,7 km/h (1 Bft) N-NW 337 15,0 C 30,4 C 3,1 km/h (1 Bft)
16.06.2013 18:50 24,5 C 54 % 1020,4 hPa 0,0 l/m 4,2 km/h (1 Bft) W-NW 292 14,6 C 29,9 C 4,5 km/h (1 Bft)
16.06.2013 18:55 24,3 C 54 % 1020,4 hPa 0,0 l/m 4,5 km/h (1 Bft) W-NW 292 14,4 C 29,5 C 2,4 km/h (1 Bft)
16.06.2013 19:00 24,2 C 57 % 1020,4 hPa 0,0 l/m 3,1 km/h (1 Bft) NW 315 15,1 C 29,8 C 5,0 km/h (1 Bft)
16.06.2013 19:05 24,2 C 57 % 1019,9 hPa 0,0 l/m 2,7 km/h (1 Bft) W-NW 292 15,1 C 29,9 C 4,3 km/h (1 Bft)
16.06.2013 19:11 24,2 C 56 % 1019,9 hPa 0,0 l/m 2,6 km/h (1 Bft) NW 315 14,9 C 30,0 C 2,4 km/h (1 Bft)
16.06.2013 19:15 24,3 C 56 % 1019,9 hPa 0,0 l/m 2,4 km/h (1 Bft) W-NW 292 14,9 C 30,3 C 6,4 km/h (2 Bft)
16.06.2013 19:20 24,4 C 56 % 1019,9 hPa 0,0 l/m 2,7 km/h (1 Bft) W-NW 292 15,0 C 29,8 C 3,2 km/h (1 Bft)
16.06.2013 19:25 24,4 C 55 % 1019,9 hPa 0,0 l/m 3,4 km/h (1 Bft) N-NW 337 14,8 C 29,9 C 8,4 km/h (2 Bft)
16.06.2013 19:30 24,2 C 55 % 1019,9 hPa 0,0 l/m 4,3 km/h (1 Bft) N 360 14,6 C 29,1 C 7,9 km/h (2 Bft)
16.06.2013 19:35 23,9 C 56 % 1019,9 hPa 0,0 l/m 4,7 km/h (1 Bft) N-NW 337 14,6 C 28,7 C 5,8 km/h (2 Bft)
16.06.2013 19:40 23,7 C 56 % 1019,9 hPa 0,0 l/m 4,3 km/h (1 Bft) NW 315 14,4 C 28,1 C 7,6 km/h (2 Bft)
16.06.2013 19:45 23,6 C 58 % 1019,9 hPa 0,0 l/m 4,0 km/h (1 Bft) N-NW 337 14,8 C 27,9 C 6,1 km/h (2 Bft)
16.06.2013 19:50 23,5 C 58 % 1019,9 hPa 0,0 l/m 3,4 km/h (1 Bft) N-NW 337 14,7 C 27,7 C 2,1 km/h (1 Bft)
16.06.2013 19:55 23,3 C 57 % 1019,9 hPa 0,0 l/m 2,9 km/h (1 Bft) N-NW 337 14,3 C 27,7 C 3,5 km/h (1 Bft)
16.06.2013 20:00 23,2 C 58 % 1019,9 hPa 0,0 l/m 2,1 km/h (1 Bft) NW 315 14,5 C 27,6 C 3,1 km/h (1 Bft)
16.06.2013 20:05 23,2 C 58 % 1019,9 hPa 0,0 l/m 2,4 km/h (1 Bft) NW 315 14,5 C 27,6 C 2,9 km/h (1 Bft)
16.06.2013 20:10 22,8 C 61 % 1019,9 hPa 0,0 l/m 2,3 km/h (1 Bft) N 360 14,9 C 27,5 C 1,8 km/h (1 Bft)
16.06.2013 20:15 22,5 C 62 % 1019,9 hPa 0,0 l/m 1,4 km/h (1 Bft) NO 45 14,8 C 27,5 C 0,0 km/h (0 Bft)
16.06.2013 20:20 22,3 C 63 % 1019,9 hPa 0,0 l/m 0,5 km/h (0 Bft) NO 45 14,9 C 27,7 C 2,6 km/h (1 Bft)
16.06.2013 20:25 22,3 C 63 % 1020,0 hPa 0,0 l/m 1,0 km/h (0 Bft) O 90 14,9 C 27,5 C 3,4 km/h (1 Bft)
16.06.2013 20:30 21,9 C 65 % 1020,0 hPa 0,0 l/m 1,6 km/h (1 Bft) O-NO 67 15,0 C 26,9 C 3,5 km/h (1 Bft)
16.06.2013 20:35 21,8 C 65 % 1020,0 hPa 0,0 l/m 2,3 km/h (1 Bft) O 90 14,9 C 26,5 C 2,9 km/h (1 Bft)
16.06.2013 20:40 21,1 C 66 % 1020,0 hPa 0,0 l/m 2,4 km/h (1 Bft) NO 45 14,5 C 25,7 C 2,7 km/h (1 Bft)
16.06.2013 20:45 20,9 C 67 % 1019,9 hPa 0,0 l/m 2,3 km/h (1 Bft) O-NO 67 14,5 C 25,1 C 1,8 km/h (1 Bft)
16.06.2013 20:50 20,5 C 68 % 1019,9 hPa 0,0 l/m 1,8 km/h (1 Bft) N-NO 22 14,4 C 24,4 C 1,8 km/h (1 Bft)
16.06.2013 20:55 20,4 C 69 % 1019,9 hPa 0,0 l/m 1,4 km/h (1 Bft) NO 45 14,5 C 23,7 C 1,6 km/h (1 Bft)
16.06.2013 21:00 20,2 C 69 % 1019,9 hPa 0,0 l/m 1,4 km/h (1 Bft) O 90 14,3 C 22,7 C 1,9 km/h (1 Bft)
16.06.2013 21:05 20,0 C 70 % 1020,0 hPa 0,0 l/m 1,3 km/h (1 Bft) O 90 14,4 C 22,3 C 3,1 km/h (1 Bft)
16.06.2013 21:10 19,7 C 71 % 1020,0 hPa 0,0 l/m 2,1 km/h (1 Bft) O-NO 67 14,3 C 21,4 C 2,9 km/h (1 Bft)
16.06.2013 21:16 19,5 C 72 % 1020,0 hPa 0,0 l/m 2,4 km/h (1 Bft) O 90 14,3 C 20,7 C 3,1 km/h (1 Bft)
16.06.2013 21:20 19,2 C 72 % 1020,0 hPa 0,0 l/m 2,4 km/h (1 Bft) O-NO 67 14,0 C 20,0 C 2,3 km/h (1 Bft)
16.06.2013 21:25 19,0 C 73 % 1019,9 hPa 0,0 l/m 2,4 km/h (1 Bft) O 90 14,0 C 19,5 C 2,7 km/h (1 Bft)
16.06.2013 21:30 18,7 C 74 % 1019,9 hPa 0,0 l/m 2,7 km/h (1 Bft) O 90 14,0 C 19,0 C 3,1 km/h (1 Bft)
16.06.2013 21:35 18,6 C 75 % 1019,9 hPa 0,0 l/m 2,9 km/h (1 Bft) O 90 14,1 C 18,7 C 3,2 km/h (1 Bft)
16.06.2013 21:40 18,4 C 76 % 1019,9 hPa 0,0 l/m 2,9 km/h (1 Bft) O-SO 112 14,1 C 18,5 C 2,6 km/h (1 Bft)
16.06.2013 21:45 18,2 C 76 % 1020,1 hPa 0,0 l/m 2,9 km/h (1 Bft) O 90 13,9 C 18,3 C 2,4 km/h (1 Bft)
16.06.2013 21:50 17,9 C 77 % 1020,1 hPa 0,0 l/m 1,6 km/h (1 Bft) O-SO 112 13,8 C 18,0 C 0,0 km/h (0 Bft)
16.06.2013 21:55 17,7 C 77 % 1020,1 hPa 0,0 l/m 0,6 km/h (0 Bft) SO 135 13,6 C 17,9 C 0,0 km/h (0 Bft)
16.06.2013 22:00 17,2 C 78 % 1020,1 hPa 0,0 l/m 0,0 km/h (0 Bft) NO 45 13,3 C 17,5 C 0,0 km/h (0 Bft)
16.06.2013 22:05 17,0 C 79 % 1020,2 hPa 0,0 l/m 0,0 km/h (0 Bft) NO 45 13,3 C 17,2 C 2,1 km/h (1 Bft)
16.06.2013 22:11 17,0 C 79 % 1020,2 hPa 0,0 l/m 0,2 km/h (0 Bft) O 90 13,3 C 17,1 C 1,6 km/h (1 Bft)
16.06.2013 22:15 17,1 C 80 % 1020,2 hPa 0,0 l/m 0,6 km/h (0 Bft) W 270 13,6 C 17,0 C 0,0 km/h (0 Bft)
16.06.2013 22:20 17,4 C 80 % 1020,2 hPa 0,0 l/m 1,4 km/h (1 Bft) O 90 13,9 C 17,3 C 1,9 km/h (1 Bft)
16.06.2013 22:25 17,3 C 80 % 1020,2 hPa 0,0 l/m 1,4 km/h (1 Bft) O-SO 112 13,8 C 17,4 C 1,9 km/h (1 Bft)
16.06.2013 22:30 17,2 C 80 % 1020,2 hPa 0,0 l/m 0,6 km/h (0 Bft) O 90 13,7 C 17,3 C 0,0 km/h (0 Bft)
16.06.2013 22:35 17,2 C 80 % 1020,2 hPa 0,0 l/m 0,6 km/h (0 Bft) NO 45 13,7 C 17,2 C 3,1 km/h (1 Bft)
16.06.2013 22:40 17,1 C 80 % 1020,2 hPa 0,0 l/m 0,6 km/h (0 Bft) O 90 13,6 C 17,1 C 0,0 km/h (0 Bft)
16.06.2013 22:45 17,0 C 80 % 1020,4 hPa 0,0 l/m 0,6 km/h (0 Bft) O 90 13,5 C 17,0 C 1,8 km/h (1 Bft)
16.06.2013 22:50 16,8 C 80 % 1020,4 hPa 0,0 l/m 0,2 km/h (0 Bft) NO 45 13,3 C 16,9 C 1,6 km/h (1 Bft)
16.06.2013 22:55 16,8 C 80 % 1020,4 hPa 0,0 l/m 0,2 km/h (0 Bft) S-SW 202 13,3 C 16,9 C 0,0 km/h (0 Bft)
16.06.2013 23:00 16,6 C 81 % 1020,4 hPa 0,0 l/m 0,3 km/h (0 Bft) O 90 13,3 C 16,7 C 1,8 km/h (1 Bft)
16.06.2013 23:05 16,5 C 81 % 1020,2 hPa 0,0 l/m 0,3 km/h (0 Bft) O 90 13,2 C 16,7 C 0,0 km/h (0 Bft)
16.06.2013 23:10 16,5 C 81 % 1020,2 hPa 0,0 l/m 0,3 km/h (0 Bft) O 90 13,2 C 16,6 C 0,0 km/h (0 Bft)
16.06.2013 23:15 16,4 C 81 % 1020,2 hPa 0,0 l/m 0,2 km/h (0 Bft) O 90 13,1 C 16,5 C 0,0 km/h (0 Bft)
16.06.2013 23:20 16,1 C 81 % 1020,2 hPa 0,0 l/m 0,2 km/h (0 Bft) O-NO 67 12,8 C 16,4 C 0,0 km/h (0 Bft)
16.06.2013 23:25 16,1 C 82 % 1020,1 hPa 0,0 l/m 0,2 km/h (0 Bft) O 90 13,0 C 16,4 C 0,0 km/h (0 Bft)
16.06.2013 23:30 16,1 C 82 % 1020,1 hPa 0,0 l/m 0,5 km/h (0 Bft) W 270 13,0 C 16,4 C 0,0 km/h (0 Bft)
16.06.2013 23:35 16,1 C 82 % 1020,1 hPa 0,0 l/m 0,5 km/h (0 Bft) N 360 13,0 C 16,4 C 0,0 km/h (0 Bft)
16.06.2013 23:40 16,2 C 83 % 1020,1 hPa 0,0 l/m 0,5 km/h (0 Bft) W-SW 247 13,3 C 16,5 C 2,9 km/h (1 Bft)
16.06.2013 23:45 16,1 C 83 % 1020,2 hPa 0,0 l/m 0,5 km/h (0 Bft) SO 135 13,2 C 16,4 C 0,0 km/h (0 Bft)
16.06.2013 23:50 15,9 C 84 % 1020,2 hPa 0,0 l/m 0,2 km/h (0 Bft) S-SW 202 13,2 C 16,2 C 0,0 km/h (0 Bft)
16.06.2013 23:55 15,8 C 84 % 1020,2 hPa 0,0 l/m 0,2 km/h (0 Bft) SO 135 13,1 C 16,2 C 0,0 km/h (0 Bft)
_ Min-Zeit 05:50 16:10 21:40 - 22:05 - - 05:00 05:00 23:55
Minimum _ 12,5 C 41 % 1019,9 hPa - 0,0 km/h (0 Bft) - - 11,7 C 12,5 C 0,0 km/h (0 Bft)
_ Max-Zeit 16:30 06:05 11:20 23:55 18:30 - - 09:40 16:50 18:30
Maximum _ 27,9 C 96 % 1022,7 hPa 0,0 l/m 5,0 km/h
N-NW (1 Bft)
- - 18,9 C 31,9 C 12,7 km/h
N-NW (3 Bft)
Durchschnitt _ 19,8 C 73 % 1021,1 hPa #0,0 l/m 1,8 km/h (1 Bft) W-NW - 14,1 C 21,5 C 2,5 km/h (1 Bft)